This is the latest recevied weather packets stored in our database for station/object N0NPO. If no packets are shown the sender has not sent any weather packets the latest 10 day(s).
| Time | Temp. | Humidity | Pressure | Rain* | Wind** | Luminosity | Snow |
|---|---|---|---|---|---|---|---|
| 1777475431 | 7.78° C | 1% | 1022.7 hPa | 0 mm | - | 483 W/m² | - |
| 1777475126 | 7.22° C | 1% | 1022.6 hPa | 0 mm | - | 438 W/m² | - |
| 1777474823 | 6.67° C | 1% | 1022.8 hPa | 0 mm | - | 404 W/m² | - |
| 1777474519 | 6.11° C | 1% | 1023 hPa | 0 mm | - | 399 W/m² | - |
| 1777474216 | 6.11° C | 1% | 1022.8 hPa | 0 mm | - | 389 W/m² | - |
| 1777473913 | 6.11° C | 1% | 1022.9 hPa | 0 mm | - | 383 W/m² | - |
| 1777473611 | 6.11° C | 1% | 1022.8 hPa | 0 mm | - | 361 W/m² | - |
| 1777473307 | 5.56° C | 1% | 1022.9 hPa | 0 mm | - | 322 W/m² | - |
| 1777473002 | 5° C | 1% | 1023 hPa | 0 mm | - | 377 W/m² | - |
| 1777472699 | 5° C | 1% | 1023 hPa | 0 mm | - | 319 W/m² | - |
| 1777472395 | 5° C | 1% | 1022.7 hPa | 0 mm | - | 295 W/m² | - |
| 1777472094 | 5° C | 1% | 1022.8 hPa | 0 mm | - | 294 W/m² | - |
| 1777471788 | 5° C | 1% | 1022.9 hPa | 0 mm | - | 240 W/m² | - |
| 1777471485 | 4.44° C | 1% | 1022.8 hPa | 0 mm | - | 206 W/m² | - |
| 1777471182 | 4.44° C | 1% | 1022.7 hPa | 0 mm | - | 245 W/m² | - |
| 1777470878 | 3.89° C | 1% | 1022.7 hPa | 0 mm | - | 223 W/m² | - |
| 1777470576 | 3.89° C | 1% | 1022.8 hPa | 0 mm | - | 236 W/m² | - |
| 1777470271 | 3.89° C | 1% | 1022.8 hPa | 0 mm | - | 209 W/m² | - |
| 1777469968 | 3.89° C | 1% | 1023.1 hPa | 0 mm | - | 168 W/m² | - |
| 1777469664 | 3.33° C | 1% | 1023 hPa | 0 mm | - | 158 W/m² | - |
| 1777469359 | 3.33° C | 1% | 1022.8 hPa | 0 mm | - | 175 W/m² | - |
| 1777469055 | 3.33° C | 1% | 1022.7 hPa | 0 mm | - | 182 W/m² | - |
| 1777468750 | 3.89° C | 1% | 1023.1 hPa | 0 mm | - | 180 W/m² | - |
| 1777468446 | 3.33° C | 1% | 1022.9 hPa | 0 mm | - | 98 W/m² | - |
| 1777468143 | 3.89° C | 1% | 1023 hPa | 0 mm | - | 91 W/m² | - |
* Rain latest hour (hover to see other rain measurements)
** Current wind speed in m/s (hover to see current wind gust speed)